TA3MHA Weather Reports


Display with metric or nautical units.
time (UTC)temp
F
wind
direction
speed
MPH
gust
MPH
rain 1hr
in
rain 24hr
in
rain mn
in
humidity
%
barometer
mb
20260510060000 64 9 2.0 3.0 0.00 0.00 0.00 54
20260510055500 64 337 4.0 5.0 0.00 0.00 0.00 58
20260510055000 64 347 1.0 4.0 0.00 0.00 0.00 58
20260510054500 64 33 2.0 3.0 0.00 0.00 0.00 56
20260510054001 64 19 2.0 2.0 0.00 0.00 0.00 56
20260510053500 64 335 0.0 2.0 0.00 0.00 0.00 56
20260510053000 64 13 2.0 3.0 0.00 0.00 0.00 56
20260510052000 65 297 0.0 0.0 0.00 0.00 0.00 52
20260510051500 64 140 1.0 2.0 0.00 0.00 0.00 54
20260510051000 63 135 3.0 3.0 0.00 0.00 0.00 52
20260510050500 63 124 4.0 5.0 0.00 0.00 0.00 51
20260510045500 62 135 4.0 5.0 0.00 0.00 0.00 56
20260510045000 61 122 2.0 3.0 0.00 0.00 0.00 58
20260510044500 60 10 2.0 3.0 0.00 0.00 0.00 62
20260510043500 60 11 2.0 3.0 0.00 0.00 0.00 59
20260510043000 60 17 4.0 4.0 0.00 0.00 0.00 59
20260510042000 59 57 2.0 3.0 0.00 0.00 0.00 61
20260510041500 58 235 2.0 2.0 0.00 0.00 0.00 63
20260510041000 57 133 0.0 1.0 0.00 0.00 0.00 64
20260510040500 56 180 0.0 0.0 0.00 0.00 0.00 63
20260510035500 55 189 0.0 2.0 0.00 0.00 0.00 67
20260510035000 55 254 1.0 2.0 0.00 0.00 0.00 67
20260510034500 55 191 1.0 2.0 0.00 0.00 0.00 67
20260510034000 55 182 1.0 2.0 0.00 0.00 0.00 66
20260510033500 55 259 3.0 3.0 0.00 0.00 0.00 67
20260510033000 54 289 0.0 2.0 0.00 0.00 0.00 67
20260510032500 54 222 0.0 2.0 0.00 0.00 0.00 69
20260510031500 54 213 1.0 1.0 0.00 0.00 0.00 70
20260510030500 55 286 2.0 2.0 0.00 0.00 0.00 69
20260510030001 55 196 1.0 2.0 0.00 0.00 0.00 68
20260510025500 54 131 0.0 2.0 0.00 0.00 0.00 70
20260510025000 54 148 1.0 2.0 0.00 0.00 0.00 70
20260510024001 55 273 2.0 2.0 0.00 0.00 0.00 67
20260510023500 55 327 2.0 2.0 0.00 0.00 0.00 66
20260510023000 55 0 2.0 2.0 0.00 0.00 0.00 67
20260510022500 55 354 1.0 2.0 0.00 0.00 0.00 67
20260510022000 55 154 1.0 2.0 0.00 0.00 0.00 68
20260510021000 55 24 1.0 1.0 0.00 0.00 0.00 68
20260510020500 54 126 0.0 0.0 0.00 0.00 0.00 69
20260510020000 54 230 3.0 3.0 0.00 0.00 0.00 70
20260510015500 54 255 3.0 3.0 0.00 0.00 0.00 70
20260510014000 56 182 3.0 3.0 0.00 0.00 0.00 64
20260510013500 57 113 0.0 2.0 0.00 0.00 0.00 63
20260510013000 56 85 2.0 2.0 0.00 0.00 0.00 65
20260510012500 56 100 0.0 1.0 0.00 0.00 0.00 65
20260510012000 56 353 0.0 1.0 0.00 0.00 0.00 66
20260510011500 56 50 0.0 1.0 0.00 0.00 0.00 66
20260510011000 55 101 0.0 1.0 0.00 0.00 0.00 66
20260510010500 56 122 2.0 2.0 0.00 0.00 0.00 66
20260510010000 56 177 4.0 4.0 0.00 0.00 0.00 65
20260510005500 56 200 2.0 2.0 0.00 0.00 0.00 64
20260510005000 56 334 0.0 0.0 0.00 0.00 0.00 64
20260510004500 56 297 0.0 0.0 0.00 0.00 0.00 64
20260510004000 57 157 1.0 1.0 0.00 0.00 0.00 62
20260510003500 58 248 3.0 3.0 0.00 0.00 0.00 58
20260510003000 57 178 2.0 3.0 0.00 0.00 0.00 60
20260510002500 57 164 2.0 2.0 0.00 0.00 0.00 61
20260510002000 57 180 4.0 4.0 0.00 0.00 0.00 61
20260510001500 57 129 0.0 0.0 0.00 0.00 0.00 61
20260510001000 57 69 4.0 4.0 0.00 0.00 0.00 63
20260510000500 57 149 2.0 3.0 0.00 0.00 0.00 61
20260510000000 57 100 2.0 2.0 0.00 0.00 0.00 62
20260509235500 56 106 0.0 1.0 0.00 0.00 0.00 64
20260509235000 56 178 0.0 0.0 0.00 0.00 0.00 63
20260509234500 57 273 0.0 2.0 0.00 0.00 0.00 62
20260509234000 58 337 2.0 4.0 0.00 0.00 0.00 59
20260509233500 59 13 0.0 1.0 0.00 0.00 0.00 58
20260509232500 58 140 0.0 2.0 0.00 0.00 0.00 58
20260509232000 57 151 0.0 2.0 0.00 0.00 0.00 61
20260509231500 57 9 3.0 4.0 0.00 0.00 0.00 63
20260509230500 58 121 2.0 2.0 0.00 0.00 0.00 61
20260509230000 58 169 4.0 6.0 0.00 0.00 0.00 61
20260509225500 57 179 3.0 5.0 0.00 0.00 0.00 63
20260509225000 57 214 2.0 3.0 0.00 0.00 0.00 62
20260509224000 58 0 2.0 2.0 0.00 0.00 0.00 60
20260509223500 58 47 2.0 2.0 0.00 0.00 0.00 58
20260509223000 59 104 1.0 1.0 0.00 0.00 0.00 58
20260509222500 58 143 1.0 2.0 0.00 0.00 0.00 59
20260509222000 57 190 2.0 2.0 0.00 0.00 0.00 62
20260509221500 56 14 1.0 1.0 0.00 0.00 0.00 63
20260509221000 57 9 2.0 2.0 0.00 0.00 0.00 63
20260509220500 57 199 0.0 1.0 0.00 0.00 0.00 63
20260509220000 57 178 2.0 2.0 0.00 0.00 0.00 63
20260509215500 57 229 2.0 2.0 0.00 0.00 0.00 62
20260509215000 57 218 2.0 2.0 0.00 0.00 0.00 63
20260509214500 57 286 1.0 2.0 0.00 0.00 0.00 63
20260509214000 56 191 0.0 1.0 0.00 0.00 0.00 64
20260509213500 57 16 0.0 1.0 0.00 0.00 0.00 64
20260509213000 58 300 0.0 1.0 0.00 0.00 0.00 61
20260509212500 58 315 0.0 0.0 0.00 0.00 0.00 60
20260509211500 59 15 0.0 0.0 0.00 0.00 0.00 60
20260509211000 59 212 2.0 2.0 0.00 0.00 0.00 60
20260509210001 61 180 0.0 1.0 0.00 0.00 0.00 54
20260509205500 60 180 3.0 4.0 0.00 0.05 0.05 55
20260509205000 60 301 1.0 2.0 0.00 0.05 0.05 60
20260509204500 59 165 0.0 0.0 0.00 0.05 0.05 61
20260509204000 59 293 1.0 1.0 0.00 0.05 0.05 62
20260509203500 59 56 0.0 1.0 0.00 0.05 0.05 64
20260509202500 61 304 0.0 1.0 0.00 0.05 0.05 59
20260509202000 63 152 1.0 1.0 0.00 0.05 0.05 58
20260509201500 64 38 1.0 2.0 0.00 0.05 0.05 54
20260509200500 64 117 0.0 0.0 0.00 0.05 0.05 48
20260509200000 64 171 0.0 0.0 0.00 0.05 0.05 48
20260509195500 62 269 0.0 0.0 0.00 0.05 0.05 52
20260509195001 62 98 0.0 0.0 0.00 0.05 0.05 58
20260509193500 60 205 0.0 1.0 0.00 0.05 0.05 63
20260509193000 61 307 3.0 4.0 0.00 0.05 0.05 61
20260509192500 62 289 2.0 2.0 0.00 0.05 0.05 60
20260509191000 62 269 0.0 2.0 0.00 0.05 0.05 59
20260509190500 62 297 3.0 3.0 0.00 0.05 0.05 61
20260509190001 62 290 2.0 2.0 0.00 0.05 0.05 60
20260509185500 64 230 2.0 2.0 0.00 0.05 0.05 55
20260509185000 64 183 3.0 3.0 0.00 0.05 0.05 52
20260509184500 64 199 2.0 3.0 0.00 0.05 0.05 55
20260509184001 63 194 3.0 3.0 0.00 0.05 0.05 56
20260509183500 64 256 1.0 1.0 0.00 0.05 0.05 59
20260509183000 63 193 2.0 3.0 0.00 0.05 0.05 58
20260509182501 64 269 3.0 4.0 0.00 0.05 0.05 57
20260509182001 64 254 0.0 2.0 0.00 0.05 0.05 54
20260509181500 64 219 1.0 2.0 0.00 0.05 0.05 56
20260509181000 65 245 0.0 2.0 0.00 0.05 0.05 55
20260509180500 66 272 1.0 1.0 0.00 0.05 0.05 51
20260509180000 66 232 3.0 3.0 0.00 0.05 0.05 50
20260509175500 66 344 0.0 0.0 0.00 0.05 0.05 53
20260509175000 66 198 2.0 3.0 0.00 0.05 0.05 50
20260509174500 66 278 2.0 2.0 0.00 0.05 0.05 47
20260509174000 67 351 1.0 1.0 0.00 0.05 0.05 49
20260509173001 66 80 0.0 1.0 0.00 0.05 0.05 46
20260509172500 67 177 1.0 1.0 0.00 0.05 0.05 50
20260509172000 67 246 1.0 1.0 0.00 0.05 0.05 46
20260509171501 67 80 2.0 2.0 0.00 0.05 0.05 48
20260509171002 67 315 0.0 0.0 0.00 0.05 0.05 47
20260509170500 67 44 0.0 0.0 0.00 0.05 0.05 48
20260509170001 68 22 0.0 2.0 0.00 0.05 0.05 48
20260509165500 69 255 0.0 0.0 0.00 0.05 0.05 48
20260509165000 69 2 0.0 0.0 0.00 0.05 0.05 44
20260509164500 70 15 0.0 1.0 0.00 0.05 0.05 48
20260509164001 70 274 1.0 2.0 0.00 0.05 0.05 47
20260509163500 70 290 0.0 0.0 0.00 0.05 0.05 44
20260509163000 70 315 0.0 0.0 0.00 0.05 0.05 45
20260509162500 70 321 1.0 2.0 0.00 0.05 0.05 46
20260509162000 70 216 3.0 3.0 0.00 0.05 0.05 43
20260509161500 71 257 3.0 3.0 0.00 0.05 0.05 42
20260509161000 72 257 4.0 5.0 0.00 0.05 0.05 43
20260509160500 72 232 2.0 2.0 0.00 0.05 0.05 41
20260509155501 71 214 4.0 6.0 0.00 0.05 0.05 42
20260509155000 71 202 4.0 4.0 0.00 0.05 0.05 41
20260509154500 71 201 3.0 5.0 0.00 0.05 0.05 42
20260509154000 71 183 2.0 6.0 0.00 0.05 0.05 42
20260509153000 71 188 9.0 9.0 0.00 0.05 0.05 44
20260509152500 71 233 5.0 6.0 0.00 0.05 0.05 43
20260509152000 71 185 5.0 7.0 0.00 0.05 0.05 43
20260509151500 71 219 6.0 7.0 0.00 0.05 0.05 41
20260509151000 71 239 5.0 6.0 0.00 0.05 0.05 41
20260509150500 71 195 4.0 9.0 0.00 0.05 0.05 42
20260509150000 71 188 4.0 6.0 0.00 0.05 0.05 41
20260509145500 72 249 9.0 10.0 0.00 0.05 0.05 40
20260509145000 72 240 5.0 7.0 0.00 0.05 0.05 38
20260509144500 72 219 6.0 7.0 0.00 0.05 0.05 38
20260509144000 71 193 6.0 6.0 0.00 0.05 0.05 38
20260509143500 71 227 5.0 8.0 0.00 0.05 0.05 39
20260509143000 71 216 5.0 10.0 0.00 0.05 0.05 38
20260509142500 71 243 6.0 6.0 0.00 0.05 0.05 39
20260509142000 71 242 8.0 8.0 0.00 0.05 0.05 41
20260509141500 71 231 8.0 9.0 0.00 0.05 0.05 42
20260509141000 71 234 11.0 13.0 0.00 0.05 0.05 43
20260509140500 71 224 3.0 6.0 0.00 0.05 0.05 43
20260509140000 71 198 7.0 7.0 0.00 0.05 0.05 41
20260509135500 72 244 6.0 11.0 0.00 0.05 0.05 40
20260509135000 72 214 6.0 8.0 0.00 0.05 0.05 39
20260509134500 73 224 8.0 11.0 0.00 0.05 0.05 39
20260509134000 74 191 9.0 9.0 0.00 0.05 0.05 39
20260509133000 73 208 7.0 9.0 0.00 0.05 0.05 38
20260509132500 72 236 12.0 13.0 0.00 0.05 0.05 37
20260509132000 72 217 7.0 12.0 0.00 0.05 0.05 38
20260509131501 72 221 6.0 9.0 0.00 0.05 0.05 39
20260509131000 72 231 7.0 8.0 0.00 0.05 0.05 40
20260509130500 72 246 4.0 5.0 0.00 0.05 0.05 45
20260509130000 72 261 4.0 5.0 0.00 0.05 0.05 46
20260509125500 72 178 7.0 9.0 0.00 0.05 0.05 44
20260509125000 72 231 5.0 7.0 0.00 0.05 0.05 44
20260509124500 71 234 6.0 8.0 0.00 0.05 0.05 46
20260509124000 70 233 3.0 5.0 0.00 0.05 0.05 46
20260509123500 70 190 8.0 13.0 0.00 0.05 0.05 46
20260509123000 70 221 6.0 8.0 0.00 0.05 0.05 44
20260509122000 71 213 4.0 5.0 0.00 0.05 0.05 45
20260509121500 71 188 6.0 7.0 0.00 0.05 0.05 43
20260509121000 71 184 7.0 8.0 0.00 0.05 0.05 43
20260509120500 71 187 8.0 8.0 0.00 0.05 0.05 42
20260509120000 71 188 9.0 9.0 0.00 0.05 0.05 42
20260509115500 71 204 6.0 10.0 0.00 0.05 0.05 40
20260509115000 72 217 7.0 13.0 0.00 0.05 0.05 39
20260509114500 72 207 6.0 9.0 0.00 0.05 0.05 40
20260509114000 72 213 4.0 5.0 0.00 0.05 0.05 42
20260509113500 71 217 4.0 4.0 0.00 0.05 0.05 42
20260509112500 71 227 7.0 8.0 0.00 0.05 0.05 43
20260509112000 71 255 10.0 11.0 0.00 0.05 0.05 45
20260509111000 71 231 7.0 8.0 0.00 0.05 0.05 43
20260509110500 71 255 7.0 9.0 0.00 0.05 0.05 45
20260509110000 71 252 2.0 4.0 0.00 0.05 0.05 45
20260509105500 71 281 3.0 4.0 0.00 0.05 0.05 47
20260509104500 70 191 11.0 12.0 0.00 0.05 0.05 49
20260509104000 70 190 13.0 13.0 0.00 0.05 0.05 50
20260509103500 71 190 10.0 12.0 0.00 0.05 0.05 51
20260509103000 71 190 12.0 14.0 0.00 0.05 0.05 51
20260509102500 71 203 9.0 13.0 0.00 0.05 0.05 51
20260509102000 71 199 7.0 9.0 0.00 0.05 0.05 50
20260509101500 71 205 8.0 10.0 0.00 0.05 0.05 51
20260509101000 70 229 4.0 9.0 0.00 0.05 0.05 51
20260509100500 70 230 6.0 8.0 0.00 0.05 0.05 51
20260509100000 70 212 9.0 9.0 0.00 0.05 0.05 50
20260509095501 71 215 7.0 9.0 0.00 0.05 0.05 49
20260509095000 70 210 7.0 7.0 0.00 0.05 0.05 50
20260509094500 71 241 9.0 10.0 0.00 0.05 0.05 49
20260509094000 71 239 4.0 6.0 0.00 0.05 0.05 49
20260509093500 71 244 7.0 10.0 0.00 0.05 0.05 48
20260509093000 71 206 4.0 10.0 0.00 0.05 0.05 46
20260509092500 71 219 9.0 10.0 0.00 0.05 0.05 46
20260509092000 72 230 7.0 11.0 0.00 0.05 0.05 46
20260509091500 72 197 11.0 12.0 0.00 0.05 0.05 45
20260509091000 73 195 8.0 14.0 0.00 0.05 0.05 45
20260509090500 74 228 4.0 13.0 0.00 0.05 0.05 44
20260509085500 72 176 9.0 10.0 0.00 0.05 0.05 43
20260509085000 73 226 12.0 13.0 0.00 0.05 0.05 43
20260509084500 72 203 11.0 12.0 0.00 0.05 0.05 45
20260509084000 71 239 4.0 8.0 0.00 0.05 0.05 46
20260509083501 70 216 4.0 9.0 0.00 0.05 0.05 45
20260509083000 70 211 6.0 6.0 0.00 0.05 0.05 46
20260509082500 70 196 10.0 11.0 0.00 0.05 0.05 46
20260509082000 69 201 7.0 8.0 0.00 0.05 0.05 45
20260509081000 69 197 10.0 13.0 0.00 0.05 0.05 47
20260509080501 69 209 5.0 8.0 0.00 0.05 0.05 47
20260509075500 69 207 5.0 8.0 0.00 0.05 0.05 45
20260509075000 69 217 5.0 9.0 0.00 0.05 0.05 46
20260509074000 69 195 4.0 7.0 0.00 0.05 0.05 46
20260509073500 69 207 7.0 11.0 0.00 0.05 0.05 46
20260509073000 70 192 15.0 16.0 0.00 0.05 0.05 44
20260509072500 71 199 10.0 15.0 0.00 0.05 0.05 44
20260509072000 70 214 11.0 12.0 0.00 0.05 0.05 46
20260509071500 70 195 8.0 11.0 0.00 0.05 0.05 47
20260509071000 69 176 5.0 9.0 0.00 0.05 0.05 46
20260509070000 67 183 5.0 10.0 0.00 0.05 0.05 48
20260509065500 68 206 9.0 11.0 0.00 0.05 0.05 49
20260509065000 68 242 4.0 7.0 0.00 0.05 0.05 48
20260509064500 68 220 5.0 8.0 0.00 0.05 0.05 49
20260509064000 69 244 5.0 7.0 0.00 0.05 0.05 47
20260509063500 68 231 5.0 7.0 0.00 0.05 0.05 50
20260509062500 66 232 9.0 10.0 0.00 0.05 0.05 51
20260509062000 67 196 7.0 11.0 0.00 0.05 0.05 52
20260509061500 66 238 6.0 9.0 0.00 0.05 0.05 52